Location: City of Moscow
(46.7306°N, 116.9989°W)
Time: 02:06:04
(UTC+00:00)

SJ-11-01 - Pass Details

Date: 11 December 2025
Orbit: 674 x 690 km, 98.0° (Epoch: 14 January)

Event Time Altitude Azimuth Distance (km) Brightness Sun altitude
Rises 12:48:51 0° 12° (NNE) 3,071 7.7 -25.4°
Reaches altitude 10° 12:51:07 10° 11° (N) 2,148 6.8 -25.0°
Maximum altitude 12:55:48 78° 286° (WNW) 708 4.1 -24.2°
Enters shadow 12:55:51 78° 279° (W) 708 4.1 -24.2°
Exits shadow 13:00:48 - 200° (SSW) 2,261 6.8 -23.3°
Sets 13:02:41 0° 199° (SSW) 3,031 7.5 -23.0°
